Time,TemperatureF,DewpointF,PressureIn,WindDirection,WindDirectionDegrees,WindSpeedMPH,WindSpeedGustMPH,Humidity,HourlyPrecipIn,Conditions,Clouds,dailyrainin,SoftwareType,DateUTC
2013-03-28 00:03:00,36.0,29.0,29.86,SW,225,0.0,2.0,76,0.00,,,0.00,,2013-03-28 04:03:00,
2013-03-28 00:12:00,36.0,29.0,29.86,SW,225,0.0,2.0,76,0.00,,,0.00,,2013-03-28 04:12:00,
2013-03-28 00:23:00,36.0,29.0,29.86,SW,225,0.0,2.0,76,0.00,,,0.00,,2013-03-28 04:23:00,
2013-03-28 00:32:00,36.0,29.0,29.85,South,180,0.0,2.0,76,0.00,,,0.00,,2013-03-28 04:32:00,
2013-03-28 00:42:00,36.0,29.0,29.85,South,180,0.0,2.0,76,0.00,,,0.00,,2013-03-28 04:42:00,
2013-03-28 00:53:00,36.0,29.0,29.85,South,180,0.0,2.0,76,0.00,,,0.00,,2013-03-28 04:53:00,
2013-03-28 01:02:00,38.0,30.0,29.86,SW,225,1.0,2.0,73,0.00,,,0.00,,2013-03-28 05:02:00,
2013-03-28 01:12:00,38.0,30.0,29.86,SW,225,1.0,2.0,73,0.00,,,0.00,,2013-03-28 05:12:00,
2013-03-28 01:22:00,38.0,30.0,29.86,SW,225,1.0,2.0,73,0.00,,,0.00,,2013-03-28 05:22:00,
2013-03-28 01:32:00,38.0,30.0,29.85,East,90,1.0,2.0,74,0.00,,,0.00,,2013-03-28 05:32:00,
2013-03-28 01:42:00,38.0,30.0,29.85,East,90,1.0,2.0,74,0.00,,,0.00,,2013-03-28 05:42:00,
2013-03-28 01:52:00,38.0,30.0,29.85,East,90,1.0,2.0,74,0.00,,,0.00,,2013-03-28 05:52:00,
2013-03-28 02:02:00,37.0,30.0,29.85,WNW,292,0.0,0.0,77,0.00,,,0.00,,2013-03-28 06:02:00,
2013-03-28 02:12:00,37.0,30.0,29.85,WNW,292,0.0,0.0,77,0.00,,,0.00,,2013-03-28 06:12:00,
2013-03-28 02:22:00,37.0,30.0,29.85,WNW,292,0.0,0.0,77,0.00,,,0.00,,2013-03-28 06:22:00,
2013-03-28 02:33:00,36.0,30.0,29.85,NNW,338,0.0,1.0,79,0.00,,,0.00,,2013-03-28 06:33:00,
2013-03-28 02:42:00,36.0,30.0,29.85,NNW,338,0.0,1.0,79,0.00,,,0.00,,2013-03-28 06:42:00,
2013-03-28 02:52:00,36.0,30.0,29.85,NNW,338,0.0,1.0,79,0.00,,,0.00,,2013-03-28 06:52:00,
2013-03-28 03:02:00,36.0,31.0,29.85,WNW,292,1.0,3.0,81,0.00,,,0.00,,2013-03-28 07:02:00,
2013-03-28 03:13:00,36.0,31.0,29.85,WNW,292,1.0,3.0,81,0.00,,,0.00,,2013-03-28 07:13:00,
2013-03-28 03:22:00,36.0,31.0,29.85,WNW,292,1.0,3.0,81,0.00,,,0.00,,2013-03-28 07:22:00,
2013-03-28 03:32:00,35.0,30.0,29.86,WNW,292,1.0,2.0,82,0.00,,,0.00,,2013-03-28 07:32:00,
2013-03-28 03:42:00,35.0,30.0,29.86,WNW,292,1.0,2.0,82,0.00,,,0.00,,2013-03-28 07:42:00,
2013-03-28 03:52:00,35.0,30.0,29.86,WNW,292,1.0,2.0,82,0.00,,,0.00,,2013-03-28 07:52:00,
2013-03-28 04:03:00,35.0,30.0,29.85,WSW,248,0.0,2.0,82,0.00,,,0.00,,2013-03-28 08:03:00,
2013-03-28 04:12:00,35.0,30.0,29.85,WSW,248,0.0,2.0,82,0.00,,,0.00,,2013-03-28 08:12:00,
2013-03-28 04:22:00,35.0,30.0,29.85,WSW,248,0.0,2.0,82,0.00,,,0.00,,2013-03-28 08:22:00,
2013-03-28 04:33:00,35.0,30.0,29.85,WSW,248,0.0,3.0,82,0.00,,,0.00,,2013-03-28 08:33:00,
2013-03-28 04:42:00,35.0,30.0,29.85,WSW,248,0.0,3.0,82,0.00,,,0.00,,2013-03-28 08:42:00,
2013-03-28 04:52:00,35.0,30.0,29.85,WSW,248,0.0,3.0,82,0.00,,,0.00,,2013-03-28 08:52:00,
2013-03-28 05:02:00,35.0,30.0,29.86,WSW,248,0.0,1.0,83,0.00,,,0.00,,2013-03-28 09:02:00,
2013-03-28 05:12:00,35.0,30.0,29.86,WSW,248,0.0,1.0,83,0.00,,,0.00,,2013-03-28 09:12:00,
2013-03-28 05:22:00,35.0,30.0,29.86,WSW,248,0.0,1.0,83,0.00,,,0.00,,2013-03-28 09:22:00,
2013-03-28 05:33:00,34.0,29.0,29.86,WSW,248,0.0,2.0,83,0.00,,,0.00,,2013-03-28 09:33:00,
2013-03-28 05:42:00,34.0,29.0,29.86,WSW,248,0.0,2.0,83,0.00,,,0.00,,2013-03-28 09:42:00,
2013-03-28 05:52:00,34.0,29.0,29.86,WSW,248,0.0,2.0,83,0.00,,,0.00,,2013-03-28 09:52:00,
2013-03-28 06:03:00,34.0,30.0,29.87,WSW,248,0.0,0.0,84,0.00,,,0.00,,2013-03-28 10:03:00,
2013-03-28 06:12:00,34.0,30.0,29.87,WSW,248,0.0,0.0,84,0.00,,,0.00,,2013-03-28 10:12:00,
2013-03-28 06:22:00,34.0,30.0,29.87,WSW,248,0.0,0.0,84,0.00,,,0.00,,2013-03-28 10:22:00,
2013-03-28 06:33:00,34.0,30.0,29.88,WNW,292,0.0,1.0,85,0.00,,,0.00,,2013-03-28 10:33:00,
2013-03-28 06:42:00,34.0,30.0,29.88,WNW,292,0.0,1.0,85,0.00,,,0.00,,2013-03-28 10:42:00,
2013-03-28 06:53:00,34.0,30.0,29.88,WNW,292,0.0,1.0,85,0.00,,,0.00,,2013-03-28 10:53:00,
2013-03-28 07:03:00,34.0,30.0,29.88,WSW,248,0.0,1.0,85,0.00,,,0.00,,2013-03-28 11:03:00,
2013-03-28 07:12:00,34.0,30.0,29.88,WSW,248,0.0,1.0,85,0.00,,,0.00,,2013-03-28 11:12:00,
2013-03-28 07:23:00,34.0,30.0,29.88,WSW,248,0.0,1.0,85,0.00,,,0.00,,2013-03-28 11:23:00,
2013-03-28 07:32:00,35.0,31.0,29.89,NW,315,0.0,2.0,85,0.00,,,0.00,,2013-03-28 11:32:00,
2013-03-28 07:42:00,35.0,31.0,29.89,NW,315,0.0,2.0,85,0.00,,,0.00,,2013-03-28 11:42:00,
2013-03-28 07:52:00,35.0,31.0,29.89,NW,315,0.0,2.0,85,0.00,,,0.00,,2013-03-28 11:52:00,
2013-03-28 08:02:00,36.0,32.0,29.89,WSW,248,0.0,2.0,85,0.00,,,0.00,,2013-03-28 12:02:00,
2013-03-28 08:12:00,36.0,32.0,29.89,WSW,248,0.0,2.0,85,0.00,,,0.00,,2013-03-28 12:12:00,
2013-03-28 08:22:00,36.0,32.0,29.89,WSW,248,0.0,2.0,85,0.00,,,0.00,,2013-03-28 12:22:00,
2013-03-28 08:33:00,37.0,33.0,29.96,NNW,338,0.0,2.0,84,0.00,,,0.00,,2013-03-28 12:33:00,
2013-03-28 08:42:00,37.0,33.0,29.96,NNW,338,0.0,2.0,84,0.00,,,0.00,,2013-03-28 12:42:00,
2013-03-28 08:52:00,37.0,33.0,29.96,NNW,338,0.0,2.0,84,0.00,,,0.00,,2013-03-28 12:52:00,
2013-03-28 09:02:00,39.0,35.0,29.97,NE,45,0.0,1.0,84,0.00,,,0.00,,2013-03-28 13:02:00,
2013-03-28 09:12:00,39.0,35.0,29.97,NE,45,0.0,1.0,84,0.00,,,0.00,,2013-03-28 13:12:00,
2013-03-28 09:22:00,39.0,35.0,29.97,NE,45,0.0,1.0,84,0.00,,,0.00,,2013-03-28 13:22:00,
2013-03-28 09:32:00,40.0,35.0,29.98,NE,45,1.0,2.0,81,0.00,,,0.00,,2013-03-28 13:32:00,
2013-03-28 09:42:00,40.0,35.0,29.98,NE,45,1.0,2.0,81,0.00,,,0.00,,2013-03-28 13:42:00,
2013-03-28 09:52:00,40.0,35.0,29.98,NE,45,1.0,2.0,81,0.00,,,0.00,,2013-03-28 13:52:00,
2013-03-28 10:02:00,42.0,35.0,29.99,SW,225,2.0,5.0,76,0.00,,,0.00,,2013-03-28 14:02:00,
2013-03-28 10:12:00,42.0,35.0,29.99,SW,225,2.0,5.0,76,0.00,,,0.00,,2013-03-28 14:12:00,
2013-03-28 10:23:00,42.0,35.0,29.99,SW,225,2.0,5.0,76,0.00,,,0.00,,2013-03-28 14:23:00,
2013-03-28 10:33:00,44.0,38.0,29.98,NNW,338,2.0,3.0,78,0.00,,,0.00,,2013-03-28 14:33:00,
2013-03-28 10:42:00,44.0,38.0,29.98,NNW,338,2.0,3.0,78,0.00,,,0.00,,2013-03-28 14:42:00,
2013-03-28 10:52:00,44.0,38.0,29.98,NNW,338,2.0,3.0,78,0.00,,,0.00,,2013-03-28 14:52:00,
2013-03-28 11:02:00,46.0,37.0,29.99,NW,315,1.0,3.0,70,0.00,,,0.00,,2013-03-28 15:02:00,
2013-03-28 11:12:00,46.0,37.0,29.99,NW,315,1.0,3.0,70,0.00,,,0.00,,2013-03-28 15:12:00,
2013-03-28 11:22:00,46.0,37.0,29.99,NW,315,1.0,3.0,70,0.00,,,0.00,,2013-03-28 15:22:00,
2013-03-28 11:33:00,47.0,37.0,30.00,NNE,22,2.0,3.0,67,0.00,,,0.00,,2013-03-28 15:33:00,
2013-03-28 11:43:00,47.0,37.0,30.00,NNE,22,2.0,3.0,67,0.00,,,0.00,,2013-03-28 15:43:00,
2013-03-28 11:53:00,47.0,37.0,30.00,NNE,22,2.0,3.0,67,0.00,,,0.00,,2013-03-28 15:53:00,
2013-03-28 12:03:00,48.0,35.0,29.99,NW,315,1.0,2.0,61,0.00,,,0.00,,2013-03-28 16:03:00,
2013-03-28 12:12:00,48.0,35.0,29.99,NW,315,1.0,2.0,61,0.00,,,0.00,,2013-03-28 16:12:00,
2013-03-28 12:23:00,48.0,35.0,29.99,NW,315,1.0,2.0,61,0.00,,,0.00,,2013-03-28 16:23:00,
2013-03-28 12:32:00,49.0,34.0,29.99,ESE,112,1.0,5.0,56,0.00,,,0.00,,2013-03-28 16:32:00,
2013-03-28 12:42:00,49.0,34.0,29.99,ESE,112,1.0,5.0,56,0.00,,,0.00,,2013-03-28 16:42:00,
2013-03-28 12:52:00,49.0,34.0,29.99,ESE,112,1.0,5.0,56,0.00,,,0.00,,2013-03-28 16:52:00,
2013-03-28 13:02:00,49.0,34.0,29.99,NNW,338,1.0,6.0,57,0.00,,,0.00,,2013-03-28 17:02:00,
2013-03-28 13:12:00,49.0,34.0,29.99,NNW,338,1.0,6.0,57,0.00,,,0.00,,2013-03-28 17:12:00,
2013-03-28 13:22:00,49.0,34.0,29.99,NNW,338,1.0,6.0,57,0.00,,,0.00,,2013-03-28 17:22:00,
2013-03-28 13:32:00,49.0,32.0,29.98,NNE,22,2.0,5.0,51,0.00,,,0.00,,2013-03-28 17:32:00,
2013-03-28 13:42:00,49.0,32.0,29.98,NNE,22,2.0,5.0,51,0.00,,,0.00,,2013-03-28 17:42:00,
2013-03-28 13:52:00,49.0,32.0,29.98,NNE,22,2.0,5.0,51,0.00,,,0.00,,2013-03-28 17:52:00,
2013-03-28 14:02:00,48.0,31.0,29.97,West,270,1.0,2.0,52,0.00,,,0.00,,2013-03-28 18:02:00,
2013-03-28 14:12:00,48.0,31.0,29.97,West,270,1.0,2.0,52,0.00,,,0.00,,2013-03-28 18:12:00,
2013-03-28 14:22:00,48.0,31.0,29.97,West,270,1.0,2.0,52,0.00,,,0.00,,2013-03-28 18:22:00,
2013-03-28 14:32:00,47.0,30.0,29.94,NNE,22,0.0,2.0,52,0.00,,,0.00,,2013-03-28 18:32:00,
2013-03-28 14:42:00,47.0,30.0,29.94,NNE,22,0.0,2.0,52,0.00,,,0.00,,2013-03-28 18:42:00,
2013-03-28 14:52:00,47.0,30.0,29.94,NNE,22,0.0,2.0,52,0.00,,,0.00,,2013-03-28 18:52:00,
2013-03-28 15:02:00,47.0,29.0,29.96,NE,45,2.0,7.0,50,0.00,,,0.00,,2013-03-28 19:02:00,
2013-03-28 15:12:00,47.0,29.0,29.96,NE,45,2.0,7.0,50,0.00,,,0.00,,2013-03-28 19:12:00,
2013-03-28 15:23:00,47.0,29.0,29.96,NE,45,2.0,7.0,50,0.00,,,0.00,,2013-03-28 19:23:00,
2013-03-28 15:33:00,46.0,29.0,29.96,South,180,1.0,2.0,52,0.00,,,0.00,,2013-03-28 19:33:00,
2013-03-28 15:42:00,46.0,29.0,29.96,South,180,1.0,2.0,52,0.00,,,0.00,,2013-03-28 19:42:00,
2013-03-28 15:52:00,46.0,29.0,29.96,South,180,1.0,2.0,52,0.00,,,0.00,,2013-03-28 19:52:00,
2013-03-28 16:03:00,46.0,30.0,29.97,SE,135,1.0,2.0,53,0.00,,,0.00,,2013-03-28 20:03:00,
2013-03-28 16:12:00,46.0,30.0,29.97,SE,135,1.0,2.0,53,0.00,,,0.00,,2013-03-28 20:12:00,
2013-03-28 16:22:00,46.0,30.0,29.97,SE,135,1.0,2.0,53,0.00,,,0.00,,2013-03-28 20:22:00,
2013-03-28 16:33:00,47.0,31.0,29.98,ENE,68,1.0,3.0,53,0.00,,,0.00,,2013-03-28 20:33:00,
2013-03-28 16:42:00,47.0,31.0,29.98,ENE,68,1.0,3.0,53,0.00,,,0.00,,2013-03-28 20:42:00,
2013-03-28 16:53:00,47.0,31.0,29.98,ENE,68,1.0,3.0,53,0.00,,,0.00,,2013-03-28 20:53:00,
2013-03-28 17:03:00,47.0,30.0,29.98,ENE,68,1.0,5.0,52,0.00,,,0.00,,2013-03-28 21:03:00,
2013-03-28 17:12:00,47.0,30.0,29.98,ENE,68,1.0,5.0,52,0.00,,,0.00,,2013-03-28 21:12:00,
2013-03-28 17:22:00,47.0,30.0,29.98,ENE,68,1.0,5.0,52,0.00,,,0.00,,2013-03-28 21:22:00,
2013-03-28 17:33:00,45.0,30.0,29.93,NNW,338,1.0,2.0,55,0.00,,,0.00,,2013-03-28 21:33:00,
2013-03-28 17:43:00,45.0,30.0,29.93,NNW,338,1.0,2.0,55,0.00,,,0.00,,2013-03-28 21:43:00,
2013-03-28 17:53:00,45.0,30.0,29.93,NNW,338,1.0,2.0,55,0.00,,,0.00,,2013-03-28 21:53:00,
2013-03-28 18:03:00,44.0,30.0,29.93,NNW,338,1.0,3.0,58,0.00,,,0.00,,2013-03-28 22:03:00,
2013-03-28 18:13:00,44.0,30.0,29.93,NNW,338,1.0,3.0,58,0.00,,,0.00,,2013-03-28 22:13:00,
2013-03-28 18:23:00,44.0,30.0,29.93,NNW,338,1.0,3.0,58,0.00,,,0.00,,2013-03-28 22:23:00,
2013-03-28 18:32:00,43.0,30.0,29.95,NNE,22,0.0,2.0,61,0.00,,,0.00,,2013-03-28 22:32:00,
2013-03-28 18:42:00,43.0,30.0,29.95,NNE,22,0.0,2.0,61,0.00,,,0.00,,2013-03-28 22:42:00,
2013-03-28 18:53:00,43.0,30.0,29.95,NNE,22,0.0,2.0,61,0.00,,,0.00,,2013-03-28 22:53:00,
2013-03-28 19:03:00,41.0,30.0,29.96,SSW,202,0.0,0.0,65,0.00,,,0.00,,2013-03-28 23:03:00,
2013-03-28 19:12:00,41.0,30.0,29.96,SSW,202,0.0,0.0,65,0.00,,,0.00,,2013-03-28 23:12:00,
2013-03-28 19:22:00,41.0,30.0,29.96,SSW,202,0.0,0.0,65,0.00,,,0.00,,2013-03-28 23:22:00,
2013-03-28 19:32:00,38.0,31.0,29.98,WNW,292,0.0,2.0,75,0.00,,,0.00,,2013-03-28 23:32:00,
2013-03-28 19:42:00,38.0,31.0,29.98,WNW,292,0.0,2.0,75,0.00,,,0.00,,2013-03-28 23:42:00,
2013-03-28 19:53:00,38.0,31.0,29.98,WNW,292,0.0,2.0,75,0.00,,,0.00,,2013-03-28 23:53:00,
2013-03-28 20:02:00,38.0,32.0,29.98,WSW,248,0.0,0.0,79,0.00,,,0.00,,2013-03-29 00:02:00,
2013-03-28 20:12:00,38.0,32.0,29.98,WSW,248,0.0,0.0,79,0.00,,,0.00,,2013-03-29 00:12:00,
2013-03-28 20:22:00,38.0,32.0,29.98,WSW,248,0.0,0.0,79,0.00,,,0.00,,2013-03-29 00:22:00,
2013-03-28 20:32:00,38.0,32.0,30.00,West,271,1.0,2.0,79,0.00,,,0.00,,2013-03-29 00:32:00,
2013-03-28 20:42:00,38.0,32.0,30.00,West,271,1.0,2.0,79,0.00,,,0.00,,2013-03-29 00:42:00,
2013-03-28 20:52:00,38.0,32.0,30.00,West,271,1.0,2.0,79,0.00,,,0.00,,2013-03-29 00:52:00,
2013-03-28 21:02:00,38.0,32.0,29.99,NW,315,0.0,0.0,79,0.00,,,0.00,,2013-03-29 01:02:00,
2013-03-28 21:12:00,38.0,32.0,29.99,NW,315,0.0,0.0,79,0.00,,,0.00,,2013-03-29 01:12:00,
2013-03-28 21:22:00,38.0,32.0,29.99,NW,315,0.0,0.0,79,0.00,,,0.00,,2013-03-29 01:22:00,
2013-03-28 21:33:00,37.0,31.0,29.99,WNW,292,0.0,1.0,79,0.00,,,0.00,,2013-03-29 01:33:00,
2013-03-28 21:42:00,37.0,31.0,29.99,WNW,292,0.0,1.0,79,0.00,,,0.00,,2013-03-29 01:42:00,
2013-03-28 21:52:00,37.0,31.0,29.99,WNW,292,0.0,1.0,79,0.00,,,0.00,,2013-03-29 01:52:00,
2013-03-28 22:03:00,37.0,31.0,30.00,NNW,338,0.0,0.0,79,0.00,,,0.00,,2013-03-29 02:03:00,
2013-03-28 22:12:00,37.0,31.0,30.00,NNW,338,0.0,0.0,79,0.00,,,0.00,,2013-03-29 02:12:00,
2013-03-28 22:22:00,37.0,31.0,30.00,NNW,338,0.0,0.0,79,0.00,,,0.00,,2013-03-29 02:22:00,
2013-03-28 22:32:00,37.0,31.0,30.01,WNW,292,0.0,2.0,79,0.00,,,0.00,,2013-03-29 02:32:00,
2013-03-28 22:42:00,37.0,31.0,30.01,WNW,292,0.0,2.0,79,0.00,,,0.00,,2013-03-29 02:42:00,
2013-03-28 22:53:00,37.0,31.0,30.01,WNW,292,0.0,2.0,79,0.00,,,0.00,,2013-03-29 02:53:00,
2013-03-28 23:02:00,37.0,31.0,30.01,SW,225,0.0,0.0,80,0.00,,,0.00,,2013-03-29 03:02:00,
2013-03-28 23:12:00,37.0,31.0,30.01,SW,225,0.0,0.0,80,0.00,,,0.00,,2013-03-29 03:12:00,
2013-03-28 23:22:00,37.0,31.0,30.01,SW,225,0.0,0.0,80,0.00,,,0.00,,2013-03-29 03:22:00,
2013-03-28 23:32:00,37.0,31.0,30.00,WNW,299,0.0,0.0,79,0.00,,,0.00,,2013-03-29 03:32:00,
2013-03-28 23:43:00,37.0,31.0,30.00,WNW,299,0.0,0.0,79,0.00,,,0.00,,2013-03-29 03:43:00,
2013-03-28 23:53:00,37.0,31.0,30.00,WNW,299,0.0,0.0,79,0.00,,,0.00,,2013-03-29 03:53:00,